HES1986 CYVR-CAQ8

Flight info

Callsign HES1986
Flight time 0h 32m
Altitude 8000
Route TREEL DCT ITMAV
Aircraft C208/L-SDFGR/C

Departure

Time 2026-05-03 22:10
Airport Vancouver International Airport (CYVR)

Arrival

Time 2026-05-03 22:42
Airport Powell Lake Seaplane Base (CAQ8)
Time Latitude Longitude Altitude Speed Heading
2026-05-03 21:57 49.17649 -123.16831 8 ft 3 kts 145°
2026-05-03 21:58 49.17633 -123.16811 8 ft 3 kts 143°
2026-05-03 21:58 49.17615 -123.16790 7 ft 3 kts 143°
2026-05-03 21:58 49.17597 -123.16769 6 ft 3 kts 144°
2026-05-03 21:58 49.17579 -123.16748 6 ft 3 kts 149°
2026-05-03 21:59 49.17561 -123.16730 5 ft 3 kts 146°
2026-05-03 21:59 49.17549 -123.16709 6 ft 3 kts 81°
2026-05-03 21:59 49.17548 -123.16681 6 ft 3 kts 45°
2026-05-03 21:59 49.17549 -123.16655 6 ft 2 kts 42°
2026-05-03 22:00 49.17550 -123.16629 5 ft 2 kts 37°
2026-05-03 22:00 49.17552 -123.16603 6 ft 2 kts 43°
2026-05-03 22:00 49.17552 -123.16580 6 ft 3 kts 48°
2026-05-03 22:00 49.17554 -123.16553 6 ft 2 kts 36°
2026-05-03 22:01 49.17555 -123.16527 5 ft 2 kts 38°
2026-05-03 22:01 49.17557 -123.16502 6 ft 2 kts 44°
2026-05-03 22:01 49.17559 -123.16477 6 ft 2 kts 44°
2026-05-03 22:01 49.17561 -123.16451 6 ft 2 kts 43°
2026-05-03 22:02 49.17562 -123.16427 5 ft 2 kts 45°
2026-05-03 22:02 49.17563 -123.16402 5 ft 2 kts 46°
2026-05-03 22:02 49.17570 -123.16372 6 ft 6 kts
2026-05-03 22:02 49.17598 -123.16376 5 ft 7 kts 313°
2026-05-03 22:03 49.17630 -123.16433 5 ft 6 kts 310°
2026-05-03 22:03 49.17659 -123.16483 5 ft 6 kts 312°
2026-05-03 22:03 49.17688 -123.16529 7 ft 6 kts 304°
2026-05-03 22:03 49.17706 -123.16584 8 ft 6 kts 284°
2026-05-03 22:04 49.17708 -123.16648 8 ft 6 kts 269°
2026-05-03 22:04 49.17686 -123.16676 8 ft 6 kts 136°
2026-05-03 22:04 49.17677 -123.16610 8 ft 9 kts 83°
2026-05-03 22:04 49.17686 -123.16499 5 ft 11 kts 82°
2026-05-03 22:05 49.17692 -123.16376 5 ft 12 kts 86°
2026-05-03 22:05 49.17697 -123.16250 5 ft 12 kts 86°
2026-05-03 22:05 49.17702 -123.16122 5 ft 12 kts 85°
2026-05-03 22:05 49.17709 -123.15995 5 ft 12 kts 85°
2026-05-03 22:06 49.17712 -123.15900 5 ft 7 kts 88°
2026-05-03 22:06 49.17704 -123.15847 6 ft 5 kts 140°
2026-05-03 22:06 49.17672 -123.15804 6 ft 7 kts 181°
2026-05-03 22:06 49.17640 -123.15834 5 ft 6 kts 275°
2026-05-03 22:07 49.17642 -123.15897 5 ft 5 kts 273°
2026-05-03 22:07 49.17640 -123.15932 5 ft 2 kts 270°
2026-05-03 22:07 49.17634 -123.15952 5 ft 2 kts 273°
2026-05-03 22:07 49.17628 -123.15969 5 ft 2 kts 274°
2026-05-03 22:08 49.17623 -123.15986 5 ft 2 kts 274°
2026-05-03 22:08 49.17624 -123.16042 6 ft 15 kts 276°
2026-05-03 22:08 49.17625 -123.16458 7 ft 60 kts 275°
2026-05-03 22:08 49.17696 -123.17233 45 ft 87 kts 287°
2026-05-03 22:09 49.17878 -123.18245 182 ft 106 kts 280°
2026-05-03 22:09 49.17692 -123.19395 406 ft 119 kts 239°
2026-05-03 22:09 49.16997 -123.20221 572 ft 133 kts 217°
2026-05-03 22:10 49.15397 -123.21567 1040 ft 137 kts 209°
2026-05-03 22:10 49.14519 -123.22229 1170 ft 142 kts 213°
2026-05-03 22:10 49.13686 -123.23029 1385 ft 141 kts 215°
2026-05-03 22:10 49.12850 -123.23838 1553 ft 141 kts 215°
2026-05-03 22:11 49.12039 -123.24625 1802 ft 134 kts 214°
2026-05-03 22:11 49.11261 -123.25380 2056 ft 130 kts 216°
2026-05-03 22:11 49.10649 -123.26309 2321 ft 123 kts 253°
2026-05-03 22:11 49.10732 -123.27540 2592 ft 117 kts 291°
2026-05-03 22:12 49.11173 -123.28555 2874 ft 114 kts 307°
2026-05-03 22:12 49.11623 -123.29522 3155 ft 111 kts 304°
2026-05-03 22:12 49.12050 -123.30485 3431 ft 108 kts 303°
2026-05-03 22:12 49.12462 -123.31431 3705 ft 106 kts 303°
2026-05-03 22:13 49.12868 -123.32378 3955 ft 107 kts 303°
2026-05-03 22:13 49.13272 -123.33325 4240 ft 106 kts 303°
2026-05-03 22:13 49.13671 -123.34262 4503 ft 107 kts 303°
2026-05-03 22:13 49.14087 -123.35240 4691 ft 115 kts 303°
2026-05-03 22:14 49.14545 -123.36316 4843 ft 125 kts 303°
2026-05-03 22:14 49.15036 -123.37471 4999 ft 133 kts 303°
2026-05-03 22:14 49.15551 -123.38686 5147 ft 139 kts 303°
2026-05-03 22:14 49.16087 -123.39950 5291 ft 144 kts 303°
2026-05-03 22:15 49.16636 -123.41249 5431 ft 147 kts 303°
2026-05-03 22:15 49.17200 -123.42580 5567 ft 150 kts 303°
2026-05-03 22:15 49.17769 -123.43929 5700 ft 152 kts 303°
2026-05-03 22:15 49.18344 -123.45293 5829 ft 153 kts 303°
2026-05-03 22:16 49.18922 -123.46661 5997 ft 151 kts 303°
2026-05-03 22:16 49.19482 -123.47989 6244 ft 146 kts 303°
2026-05-03 22:16 49.20028 -123.49287 6451 ft 144 kts 303°
2026-05-03 22:16 49.20561 -123.50548 6667 ft 142 kts 304°
2026-05-03 22:17 49.21090 -123.51808 6889 ft 139 kts 304°
2026-05-03 22:17 49.21612 -123.53042 7127 ft 137 kts 304°
2026-05-03 22:17 49.22122 -123.54253 7353 ft 134 kts 304°
2026-05-03 22:17 49.22624 -123.55449 7589 ft 132 kts 304°
2026-05-03 22:18 49.23117 -123.56622 7824 ft 130 kts 304°
2026-05-03 22:18 49.23608 -123.57791 7990 ft 135 kts 304°
2026-05-03 22:18 49.24137 -123.59046 7999 ft 143 kts 304°
2026-05-03 22:18 49.24679 -123.60333 8005 ft 145 kts 304°
2026-05-03 22:19 49.25227 -123.61642 8005 ft 147 kts 304°
2026-05-03 22:19 49.25782 -123.62965 8007 ft 148 kts 304°
2026-05-03 22:19 49.26340 -123.64297 8004 ft 149 kts 304°
2026-05-03 22:19 49.26900 -123.65637 8003 ft 150 kts 304°
2026-05-03 22:20 49.27456 -123.66965 8001 ft 150 kts 304°
2026-05-03 22:20 49.28021 -123.68310 8002 ft 150 kts 304°
2026-05-03 22:20 49.28585 -123.69659 8000 ft 151 kts 304°
2026-05-03 22:20 49.29153 -123.71015 8000 ft 151 kts 304°
2026-05-03 22:21 49.29718 -123.72370 7999 ft 151 kts 304°
2026-05-03 22:21 49.30282 -123.73723 8001 ft 151 kts 303°
2026-05-03 22:21 49.30847 -123.75074 7997 ft 151 kts 303°
2026-05-03 22:21 49.31413 -123.76427 7996 ft 151 kts 303°
2026-05-03 22:22 49.31978 -123.77781 7997 ft 151 kts 303°
2026-05-03 22:22 49.32545 -123.79139 7996 ft 151 kts 304°
2026-05-03 22:22 49.33111 -123.80499 7996 ft 151 kts 304°
2026-05-03 22:22 49.33678 -123.81858 7999 ft 151 kts 304°
2026-05-03 22:23 49.34245 -123.83219 8001 ft 151 kts 304°
2026-05-03 22:23 49.34803 -123.84564 7997 ft 152 kts 303°
2026-05-03 22:23 49.35372 -123.85932 8000 ft 152 kts 303°
2026-05-03 22:23 49.35912 -123.87323 8000 ft 152 kts 300°
2026-05-03 22:24 49.36448 -123.88719 8000 ft 152 kts 302°
2026-05-03 22:24 49.36993 -123.90108 8000 ft 152 kts 302°
2026-05-03 22:24 49.37528 -123.91499 8000 ft 151 kts 302°
2026-05-03 22:24 49.38060 -123.92891 7999 ft 151 kts 301°
2026-05-03 22:25 49.38593 -123.94281 7998 ft 151 kts 301°
2026-05-03 22:25 49.39127 -123.95671 7998 ft 151 kts 302°
2026-05-03 22:25 49.39658 -123.97062 8016 ft 150 kts 301°
2026-05-03 22:25 49.40186 -123.98445 8017 ft 151 kts 301°
2026-05-03 22:26 49.40717 -123.99835 8011 ft 151 kts 301°
2026-05-03 22:26 49.41267 -124.01276 7800 ft 159 kts 301°
2026-05-03 22:26 49.41825 -124.02734 7556 ft 158 kts 301°
2026-05-03 22:26 49.42380 -124.04192 7318 ft 158 kts 301°
2026-05-03 22:27 49.42928 -124.05629 7081 ft 158 kts 301°
2026-05-03 22:27 49.43480 -124.07081 6854 ft 157 kts 301°
2026-05-03 22:27 49.44030 -124.08526 6624 ft 157 kts 301°
2026-05-03 22:27 49.44580 -124.09970 6395 ft 156 kts 301°
2026-05-03 22:28 49.45130 -124.11414 6151 ft 156 kts 301°
2026-05-03 22:28 49.45679 -124.12860 5902 ft 156 kts 301°
2026-05-03 22:28 49.46227 -124.14303 5654 ft 156 kts 301°
2026-05-03 22:28 49.46774 -124.15743 5410 ft 156 kts 300°
2026-05-03 22:29 49.47322 -124.17181 5164 ft 156 kts 302°
2026-05-03 22:29 49.48086 -124.18330 4916 ft 155 kts 330°
2026-05-03 22:29 49.49034 -124.19113 4681 ft 155 kts 330°
2026-05-03 22:29 49.49974 -124.19932 4434 ft 155 kts 330°
2026-05-03 22:30 49.50915 -124.20747 4184 ft 154 kts 330°
2026-05-03 22:30 49.51840 -124.21543 4037 ft 147 kts 330°
2026-05-03 22:30 49.52700 -124.22288 4024 ft 137 kts 330°
2026-05-03 22:30 49.53515 -124.22993 4026 ft 136 kts 329°
2026-05-03 22:31 49.54324 -124.23692 4029 ft 130 kts 329°
2026-05-03 22:31 49.55110 -124.24376 4023 ft 130 kts 329°
2026-05-03 22:31 49.55891 -124.25048 4029 ft 127 kts 329°
2026-05-03 22:31 49.56658 -124.25713 4039 ft 126 kts 330°
2026-05-03 22:32 49.57428 -124.26380 4026 ft 128 kts 330°
2026-05-03 22:32 49.58198 -124.27046 4027 ft 127 kts 330°
2026-05-03 22:32 49.58968 -124.27715 4035 ft 131 kts 329°
2026-05-03 22:32 49.59796 -124.28435 4050 ft 142 kts 330°
2026-05-03 22:33 49.60699 -124.29217 4047 ft 155 kts 330°
2026-05-03 22:33 49.61638 -124.30028 4044 ft 157 kts 330°
2026-05-03 22:33 49.62610 -124.30869 4042 ft 159 kts 330°
2026-05-03 22:33 49.63561 -124.31695 4050 ft 159 kts 330°
2026-05-03 22:34 49.64522 -124.32531 4043 ft 158 kts 330°
2026-05-03 22:34 49.65484 -124.33368 4043 ft 158 kts 330°
2026-05-03 22:34 49.66443 -124.34201 4045 ft 158 kts 330°
2026-05-03 22:34 49.67401 -124.35036 4042 ft 158 kts 330°
2026-05-03 22:35 49.68357 -124.35867 4042 ft 157 kts 330°
2026-05-03 22:35 49.69314 -124.36700 4038 ft 158 kts 330°
2026-05-03 22:35 49.70260 -124.37525 4042 ft 158 kts 330°
2026-05-03 22:35 49.71220 -124.38362 4042 ft 158 kts 330°
2026-05-03 22:36 49.72181 -124.39198 4039 ft 158 kts 330°
2026-05-03 22:36 49.73134 -124.40032 4038 ft 157 kts 330°
2026-05-03 22:36 49.74088 -124.40866 4036 ft 157 kts 330°
2026-05-03 22:36 49.75041 -124.41696 4033 ft 157 kts 330°
2026-05-03 22:37 49.75996 -124.42530 4035 ft 157 kts 330°
2026-05-03 22:37 49.76948 -124.43363 4034 ft 157 kts 330°
2026-05-03 22:37 49.77900 -124.44195 4033 ft 156 kts 329°
2026-05-03 22:37 49.78819 -124.45007 3951 ft 145 kts 329°
2026-05-03 22:38 49.79617 -124.45747 3823 ft 128 kts 327°
2026-05-03 22:38 49.80374 -124.46473 3542 ft 128 kts 327°
2026-05-03 22:38 49.81145 -124.47211 3251 ft 136 kts 326°
2026-05-03 22:38 49.81932 -124.47986 3101 ft 130 kts 326°
2026-05-03 22:39 49.82631 -124.48660 2992 ft 101 kts 327°
2026-05-03 22:39 49.83177 -124.49177 2736 ft 88 kts 326°
2026-05-03 22:39 49.83693 -124.49663 2486 ft 86 kts 326°
2026-05-03 22:39 49.84189 -124.50167 2227 ft 86 kts 324°
2026-05-03 22:40 49.84689 -124.50716 1942 ft 90 kts 322°
2026-05-03 22:40 49.85200 -124.51255 1686 ft 89 kts 326°
2026-05-03 22:40 49.85741 -124.51725 1429 ft 88 kts 332°
2026-05-03 22:40 49.86313 -124.52047 1172 ft 87 kts 339°
2026-05-03 22:41 49.86898 -124.52273 916 ft 84 kts 343°
2026-05-03 22:41 49.87467 -124.52464 612 ft 84 kts 343°
2026-05-03 22:41 49.88039 -124.52646 344 ft 83 kts 342°
2026-05-03 22:41 49.88567 -124.52774 218 ft 63 kts 347°
2026-05-03 22:42 49.88940 -124.52822 190 ft 33 kts 344°
2026-05-03 22:42 49.89021 -124.52880 190 ft 3 kts 281°
2026-05-03 22:42 49.88996 -124.52908 190 ft 16 kts 159°
2026-05-03 22:42 49.88783 -124.52780 196 ft 45 kts 166°
2026-05-03 22:43 49.88434 -124.52678 194 ft 57 kts 183°
2026-05-03 22:43 49.88098 -124.52717 188 ft 29 kts 188°
2026-05-03 22:43 49.87995 -124.52736 188 ft 6 kts 188°
2026-05-03 22:43 49.87949 -124.52749 194 ft 6 kts 192°
2026-05-03 22:44 49.87936 -124.52754 197 ft 0 kts 193°
2026-05-03 22:44 49.87918 -124.52751 199 ft 11 kts 145°
2026-05-03 22:44 49.87916 -124.52733 189 ft 2 kts 26°